Location: Sant’Anna
(44.2333°N, 7.3167°E)
Time: 21:36:52
(UTC+00:00)

Daily predictions for brighter satellites

Satellite Brightness Start Highest point End
(mag) Time Altitude Azimuth Time Altitude Azimuth Time Altitude Azimuth
MOS 1-B Rocket 4.3 19:43:54 10° S 19:50:13 72° WSW 19:55:56 10° NNW
Okean-O 2.7 19:46:50 10° SSE 19:51:13 71° ENE 19:55:37 10° N
Genesis I 2.8 19:48:23 10° SSW 19:51:52 78° ESE 19:55:24 10° NE
Cosmos 1092 Rocket 4.1 19:48:24 10° S 19:54:44 89° W 20:01:08 10° N
Cosmos 540 Rocket 4.1 19:51:42 10° N 19:56:38 43° ENE 20:01:30 10° SE
Cosmos 1954 Rocket 4.4 19:53:58 10° S 19:58:55 43° ESE 20:03:54 10° NNE
USA 245 4.3 19:57:04 10° SE 19:59:54 28° ENE 20:03:22 10° N
Tiangong -1.7 19:59:04 10° W 20:02:07 47° S 20:05:11 10° ESE
Terra 2.7 19:59:24 10° SE 20:03:39 35° ENE 20:07:56 10° N
Cosmos 1707 2.9 20:03:12 10° SSE 20:06:38 44° E 20:10:05 10° NNE
Cosmos 1515 Rocket 3.5 20:03:11 10° S 20:07:28 71° E 20:11:47 10° NNE
Cosmos 676 Rocket 4.5 20:03:19 10° S 20:08:17 42° ESE 20:13:17 10° NNE
SL-4 R/B 2.9 20:04:42 10° W 20:08:20 49° NNW 20:12:14 10° NE
Cosmos 1633 Rocket 4.0 20:06:40 10° NNW 20:10:55 49° W 20:15:08 10° SSW
Cosmos 1190 Rocket 4.0 20:06:50 10° SSW 20:12:07 76° ESE 20:17:26 10° NNE
Okean O Rocket 3.1 20:11:03 10° SSW 20:15:04 34° W 20:19:06 10° NNW
SeaSat 1 2.5 20:12:16 11° SE 20:17:00 71° ENE 20:21:55 10° NNW
Cosmos 1766 3.9 20:14:47 10° NNW 20:18:27 51° W 20:22:06 10° S
EXPRESS MD2 2.2 20:16:30 10° WSW 20:19:47 85° SSE 20:22:05 10° ENE
Cosmos 1470 Rocket 4.1 20:18:39 10° NNW 20:22:57 59° W 20:27:11 10° S
USA 234 3.3 20:16:44 10° NE 20:23:18 86° SE 20:29:51 10° SW
Cosmos 1869 Rocket 4.1 20:21:29 10° N 20:25:45 43° ENE 20:29:11 15° SE
IRS-1A Rocket 4.2 20:23:30 10° SSE 20:29:01 90° E 20:34:34 10° NNW
MOS 1 Rocket 3.9 20:26:39 13° SE 20:31:16 54° ENE 20:36:29 10° N
Cosmos 2360 Rocket 3.7 20:27:01 10° N 20:31:40 25° NE 20:36:16 10° ESE
Cosmos 2333 Rocket 3.7 20:31:41 10° N 20:36:25 26° NE 20:41:09 10° ESE
Cosmos 841 Rocket 4.2 20:31:51 10° N 20:36:52 43° ENE 20:40:43 16° SE
ERS-1 Rocket 3.0 20:33:11 12° SSE 20:37:48 88° ENE 20:42:52 10° NNW
Atlas Centaur 2 3.8 20:31:12 10° SW 20:38:07 30° S 20:43:36 15° SE
Cosmos 1441 Rocket 3.0 20:35:41 10° N 20:39:18 76° E 20:41:54 18° SSE
SL-16 R/B 2.6 20:34:07 10° NNW 20:39:40 52° ENE 20:43:56 17° SE
Resurs 01 Rocket 4.2 20:37:20 10° SW 20:39:59 16° W 20:42:40 10° NW
Cosmos 1763 Rocket 4.0 20:35:49 10° NNW 20:40:59 58° WSW 20:45:43 12° S
Cosmos 2369 4.4 20:35:40 10° NW 20:41:12 52° WSW 20:46:32 11° S
In-Cosmos 22 4.2 20:36:15 10° S 20:41:52 68° E 20:47:23 10° NNE
Spot 2 Rocket 3.5 20:38:13 15° SSE 20:42:23 73° ENE 20:47:29 10° N
Cosmos 2082 Rocket 3.3 20:37:07 10° SW 20:42:39 49° WNW 20:48:10 10° NNE
RESURS DK-1 3.7 20:39:20 10° N 20:42:56 29° NE 20:45:34 15° ESE
SL-14 R/B 4.3 20:42:16 20° SE 20:43:59 28° E 20:47:15 10° NNE
SPOT 5 3.5 20:43:04 10° S 20:47:11 43° W 20:51:21 10° NNW
Cosmos 1933 Rocket 3.9 20:42:53 10° NNW 20:47:16 64° W 20:51:18 12° S
Cosmos 1470 3.4 20:44:16 10° NNW 20:47:50 49° W 20:51:09 12° SSW
Cosmos 1417 Rocket 4.5 20:41:59 10° N 20:48:14 82° E 20:53:26 15° S
Cosmos 1300 3.6 20:48:13 10° NNE 20:51:24 30° ENE 20:52:53 22° ESE
Cosmos 1908 3.4 20:51:30 10° NNW 20:55:03 59° W 20:57:41 17° S
Cosmos 1346 Rocket 3.7 20:56:28 10° N 20:59:58 32° ENE 21:01:35 23° ESE
ATLAS 2AS CENTAUR R/B 3.5 20:55:52 10° NNW 21:02:23 43° NE 21:07:52 14° ESE
Meteor 1-22 Rocket 4.2 20:58:35 10° N 21:04:14 87° E 21:08:27 20° S
Ariane Rocket 3.1 21:03:07 18° S 21:06:55 73° WSW 21:12:02 10° NNW
Meteor 1-4 Rocket 4.1 21:09:50 16° E 21:09:50 16° E 21:11:26 10° NE
Cosmos 1758 3.4 21:07:19 10° N 21:11:12 60° E 21:12:54 30° SSE
Cosmos 1356 Rocket 3.6 21:09:23 27° SSE 21:11:25 53° E 21:15:31 10° NNE
SPOT 3 Rocket 3.8 21:12:14 19° S 21:15:53 67° WSW 21:21:02 10° NNW
Cosmos 1850 Rocket 4.0 21:13:25 17° S 21:17:23 66° ESE 21:22:34 10° NNE
Cosmos 1707 Rocket 3.6 21:16:09 27° SSE 21:18:30 63° E 21:22:54 10° NNE
SL-27 R/B 2.7 21:19:33 33° E 21:19:33 33° E 21:21:45 10° NE
ARIANE 5 R/B 4.1 21:17:31 19° ESE 21:19:23 25° ENE 21:22:55 10° NNE
Cosmos 1980 Rocket 4.4 21:19:54 10° WNW 21:23:33 18° W 21:27:11 10° SW
S3M 4.3 21:17:58 10° NNW 21:24:16 65° W 21:29:06 18° S
Cosmos 2322 Rocket 2.3 21:18:37 10° NNW 21:24:19 73° ENE 21:27:28 27° SE
Meteor 1-21 4.3 21:21:06 23° S 21:24:48 66° E 21:30:35 10° NNE
Spot 1 4.2 21:20:41 10° NNE 21:25:11 88° WNW 21:28:33 19° SSW
Okean 2 4.5 21:24:44 25° ESE 21:25:22 26° E 21:28:45 10° NNE
Cosmos 1655 Rocket 4.1 21:22:56 16° S 21:28:15 86° W 21:34:42 10° N
SJ 16-02 1.9 21:28:54 33° SE 21:29:53 38° ESE 21:33:54 10° NE
Landsat 5 3.5 21:28:36 10° N 21:32:35 76° WNW 21:35:02 23° SSW
Cosmos 2278 4.3 21:27:36 10° NW 21:33:05 49° WSW 21:36:26 23° S
Cosmos 1741 Rocket 4.0 21:31:50 17° SSW 21:35:55 89° ESE 21:41:15 10° NNE
USA 281 3.6 21:32:45 23° SE 21:36:51 56° ENE 21:43:16 10° NNW
Cosmos 1400 Rocket 4.0 21:35:14 13° SW 21:38:27 37° WNW 21:42:05 10° N
Tiangong -0.1 21:36:06 10° WSW 21:37:28 17° SW 21:37:28 17° SW
MetOp-A 4.1 21:37:25 29° S 21:40:07 76° WSW 21:45:25 10° NNW
Okean 3 3.3 21:39:26 39° S 21:40:52 72° E 21:45:00 10° NNE
Terra 3.5 21:37:47 12° SSW 21:41:16 26° W 21:45:15 10° NW
COSMOS 2428 4.5 21:37:42 10° N 21:42:10 23° NE 21:46:15 11° E
Cosmos 1733 Rocket 3.1 21:38:04 10° N 21:42:28 78° W 21:44:16 35° S
GP-B 4.0 21:39:46 10° NNE 21:43:47 33° E 21:44:46 30° ESE
Cosmos 968 Rocket 3.4 21:41:01 26° S 21:43:57 77° ESE 21:49:08 10° NNE
Cosmos 2228 Rocket 3.7 21:44:42 21° SSW 21:47:37 56° WNW 21:52:08 10° N
Cosmos 1814 Rocket 4.2 21:42:27 10° NNW 21:47:42 61° ENE 21:50:00 33° SE
SL-4 R/B 4.0 21:44:18 10° WNW 21:47:45 28° N 21:51:23 10° ENE
Cosmos 1315 Rocket 3.0 21:51:05 46° SE 21:51:42 52° E 21:55:35 10° NNE
Meteor 2-20 Rocket 4.5 21:45:34 10° N 21:51:54 73° E 21:54:48 33° SSE
Cosmos 2219 Rocket 2.7 21:47:28 10° NNW 21:53:00 51° ENE 21:55:47 28° ESE
ATLAS CENTAUR R/B 1.0 21:52:14 34° SW 21:53:38 75° NW 21:57:12 10° NNE
Cosmos 1908 Rocket 4.1 21:49:38 10° N 21:53:49 43° ENE 21:54:53 36° ESE
Cosmos 1244 Rocket 4.5 21:52:52 30° S 21:56:07 75° E 22:02:25 10° NNE
Meteor 2-10 Rocket 4.5 21:52:11 10° NNW 21:57:28 43° W 22:00:34 22° SSW
Cosmos 1953 2.4 21:56:32 10° N 22:00:19 55° E 22:00:51 49° ESE
H-2A R/B 3.5 21:59:30 30° ESE 22:00:41 37° ENE 22:04:39 10° N
Cosmos 1242 Rocket 3.8 22:04:20 22° NE 22:04:20 22° NE 22:05:45 10° NNE
Cosmos 1455 2.3 22:00:05 10° N 22:03:31 50° E 22:03:41 50° E
Okean 1-7 2.9 22:04:57 48° S 22:06:07 83° E 22:10:28 10° N
BREEZE-M DEB (TANK) 2.3 22:06:55 10° WNW 22:09:08 71° SW 22:09:08 71° SW
CZ-2C R/B 3.5 22:05:49 10° NNE 22:10:14 89° E 22:11:36 45° SSW
CZ-4C R/B 3.8 22:11:44 13° E 22:11:44 13° E 22:13:13 10° ENE
ALOS 2 3.9 22:11:53 26° E 22:13:08 30° ENE 22:16:58 10° N
Cosmos 2360 Rocket 2.4 22:10:28 10° NNW 22:16:03 58° WSW 22:18:06 37° S
Cosmos 1300 Rocket 4.5 22:14:36 10° N 22:18:32 34° ENE 22:19:20 31° E
RESURS DK-1 3.7 22:17:08 10° NW 22:20:34 27° WSW 22:21:10 26° WSW
Cosmos 2333 Rocket 2.5 22:15:27 10° NNW 22:21:06 59° WSW 22:23:08 38° S
SL-16 R/B 3.7 22:18:53 10° NW 22:23:24 25° WSW 22:25:47 19° SW
H-2A R/B 4.2 22:21:31 10° ENE 22:23:29 13° E 22:23:29 13° E
Atlas Centaur 2 4.0 22:19:58 10° WSW 22:25:50 25° SSW 22:25:50 25° SSW
SL-08 R/B 4.4 22:25:46 34° SSW 22:28:39 79° W 22:34:46 10° N
BREEZE-M DEB (TANK) 4.4 22:17:14 10° W 22:32:13 57° NNW 22:36:14 10° ENE
Cosmos 1703 Rocket 3.6 22:32:44 52° SSW 22:33:46 77° W 22:38:14 10° N
Cosmos 2242 Rocket 4.2 22:36:20 41° ESE 22:36:49 42° E 22:41:08 10° NNE
DNEPR-1 R/B 4.2 22:31:29 10° NW 22:38:06 85° WSW 22:39:56 45° SSE
Meteor 1-4 Rocket 4.3 22:41:49 19° W 22:42:10 19° WNW 22:44:26 10° NNW
Cosmos 839 Rocket 4.1 22:38:58 10° NW 22:45:39 63° WSW 22:47:42 41° S
Cosmos 2322 3.7 22:41:53 10° NNW 22:47:37 78° ENE 22:49:30 44° SE
BlueWalker 3 3.4 22:50:03 25° ENE 22:50:03 25° ENE 22:51:50 10° ENE
Cosmos 2237 Rocket 3.7 22:43:44 10° N 22:48:38 29° NE 22:52:21 15° ESE
ATLAS 2AS CENTAUR R/B 3.1 22:46:56 10° NW 22:53:19 46° WSW 22:55:16 36° SSW
Cosmos 2227 Rocket 4.0 22:53:35 16° ESE 22:54:09 16° E 22:57:31 10° ENE
Cosmos 405 Rocket 4.4 22:52:34 10° NNE 22:55:35 22° ENE 22:55:58 22° E
ARIANE 5 R/B 3.7 22:54:59 30° WSW 22:55:38 32° W 22:59:32 10° NNW
SL-24 R/B - RUBIN 2 4.4 22:52:59 10° NW 22:59:33 71° WSW 23:01:28 45° S
Meteor 2-5 Rocket 4.1 23:03:32 42° SE 23:05:10 56° E 23:10:54 10° NNE
Cosmos 1703 3.4 23:06:48 56° ENE 23:06:48 56° ENE 23:10:07 10° NNE
Cosmos 2322 Rocket 4.0 23:04:06 10° WNW 23:07:40 17° W 23:09:15 15° WSW
Cosmos 1745 Rocket 4.2 23:05:11 36° SSW 23:07:50 66° W 23:14:12 10° N
Cosmos 1570 Rocket 4.1 23:02:53 10° NNW 23:08:12 67° WSW 23:09:22 51° SSW
SJ 16-02 3.4 23:05:36 12° WSW 23:08:22 21° WNW 23:11:43 10° N
PSLV R/B 3.6 23:04:38 10° NNE 23:08:50 60° E 23:08:58 59° ESE
COSMOS 2455 2.9 23:08:58 47° S 23:10:32 63° ESE 23:16:30 10° NE
Cosmos 2297 Rocket 2.6 23:13:10 42° SE 23:14:05 45° ESE 23:19:28 10° NE
Cosmos 2181 Rocket 4.3 23:13:48 10° N 23:19:55 57° ENE 23:22:13 37° SE
Cosmos 1408 3.7 23:22:14 32° NW 23:22:14 32° NW 23:24:19 10° N
USA 281 4.2 23:19:37 26° SW 23:21:36 31° WSW 23:27:19 10° NW
COSMOS 2428 2.7 23:21:16 10° NNW 23:26:54 65° WSW 23:28:13 50° SSW
SL-4 R/B 3.3 23:23:21 10° NW 23:27:15 41° NNE 23:31:20 10° E
GEOS 3 Rocket 3.5 23:25:14 10° NE 23:30:24 72° SE 23:31:28 54° S
ATLAS CENTAUR R/B 4.2 23:31:07 10° NW 23:31:57 11° NNW 23:32:48 10° NNW
Cosmos 2074 Rocket 4.4 23:33:38 36° SE 23:35:42 50° E 23:41:40 10° NNE
H-2A R/B 4.2 23:35:29 22° W 23:35:42 22° W 23:39:02 10° NW
CZ-3 Stage 3 4.3 23:17:51 10° W 23:35:54 29° SW 23:37:06 29° SSW
Cosmos 2219 Rocket 3.5 23:32:02 10° NW 23:36:36 25° WSW 23:37:28 24° WSW
Cosmos 1892 3.4 23:38:13 40° ENE 23:38:13 40° ENE 23:41:06 10° NNE
Cosmos 2208 Rocket 4.4 23:33:54 10° NNW 23:38:52 47° WSW 23:39:34 44° SW
Cosmos 371 Rocket 3.3 23:38:59 55° SW 23:39:57 73° WNW 23:44:47 10° NNE
Cosmos 158 Rocket 4.3 23:36:16 10° NNW 23:41:22 48° WSW 23:42:07 45° SW
Cosmos 773 Rocket 3.9 23:43:39 10° NNW 23:48:48 78° WSW 23:49:51 57° S
ALOS 2 3.9 23:49:16 27° W 23:49:26 27° W 23:53:11 10° NW
Cosmos 2151 Rocket 3.4 23:45:08 10° N 23:49:34 81° E 23:50:03 69° SSE
Cosmos 2263 Rocket 3.9 23:50:27 17° ESE 23:51:51 18° E 23:55:30 10° ENE
Cosmos 1503 Rocket 4.0 23:51:55 49° SW 23:53:23 77° WNW 23:58:43 10° NNE
